KI5NYZ-13 Weather Reports


time (UTC)temp
F
wind
direction
speed
knots
gust
knots
rain 1hr
in
rain 24hr
in
rain mn
in
humidity
%
barometer
mb
20260906051831 79 181 0.0 0.0 0.00 0.09 0.00 50 1010.0
20260906044830 79 187 0.0 0.0 0.00 0.10 0.09 50 1009.7
20260906041829 81 341 0.0 0.0 0.00 0.11 0.09 47 1009.3
20260906034828 81 187 0.9 0.9 0.00 0.14 0.09 46 1008.9
20260906031827 83 192 0.0 0.0 0.00 0.20 0.09 43 1008.3
20260906024826 85 190 0.0 0.0 0.00 0.27 0.09 40 1007.4
20260906021825 87 76 0.0 0.0 0.00 0.33 0.09 38 1006.6
20260906014824 88 219 0.0 0.0 0.00 0.35 0.09 37 1006.0
20260906011823 91 97 0.0 0.0 0.00 0.35 0.09 34 1005.2
20260906004822 94 174 0.0 0.0 0.00 0.35 0.09 30 1004.2
20260906001821 96 122 0.0 0.9 0.00 0.35 0.09 29 1003.8
20260905234820 97 120 0.9 0.9 0.00 0.35 0.09 29 1003.3
20260905231819 98 119 0.9 0.9 0.00 0.35 0.09 29 1003.0
20260905224818 98 114 0.0 0.9 0.00 0.35 0.09 29 1003.0
20260905221817 97 184 3.5 3.5 0.00 0.35 0.08 31 1003.3
20260905214816 98 109 1.7 1.7 0.01 0.36 0.08 31 1003.4
20260905211815 98 173 0.9 0.9 0.01 0.35 0.08 31 1004.0
20260905204814 97 188 2.6 2.6 0.02 0.36 0.07 33 1004.8
20260905201813 97 145 0.9 2.6 0.01 0.36 0.06 33 1005.2
20260905194812 96 117 0.0 0.9 0.02 0.35 0.05 33 1005.8
20260905191811 94 179 1.7 7.0 0.01 0.34 0.04 39 1006.6
20260905184811 93 187 1.7 6.1 0.00 0.33 0.03 40 1007.1
20260905181809 93 157 0.9 5.2 0.00 0.33 0.03 40 1007.5
20260905174808 90 231 0.9 3.5 0.00 0.33 0.03 46 1008.3
20260905171807 88 210 1.7 5.2 0.00 0.33 0.03 49 1008.8
20260905164806 86 201 1.7 6.1 0.00 0.33 0.03 53 1009.4
20260905161805 83 200 2.6 7.8 0.01 0.33 0.03 57 1009.9
20260905154804 82 188 2.6 7.0 0.01 0.32 0.02 60 1010.1
20260905151803 80 191 2.6 6.1 0.01 0.31 0.01 62 1010.3
20260905144802 78 178 3.5 6.1 0.00 0.30 0.00 65 1010.7
20260905141801 75 179 2.6 6.1 0.00 0.30 0.00 69 1011.3
20260905134800 74 172 0.9 5.2 0.00 0.30 0.00 71 1011.5
20260905131759 71 190 0.0 3.5 0.00 0.30 0.00 77 1011.8
20260905124758 70 202 0.0 1.7 0.00 0.30 0.00 78 1011.6
20260905121757 71 188 0.9 2.6 0.00 0.30 0.00 76 1011.1
20260905112054 71 183 0.0 0.0 0.00 0.30 0.00 75 1011.3
20260905105053 71 182 0.0 0.0 0.00 0.30 0.00 74 1011.4
20260905102052 72 68 0.0 0.0 0.00 0.30 0.00 74 1011.3
20260905095051 73 181 0.0 0.0 0.00 0.30 0.00 71 1010.9
20260905092050 74 186 0.0 0.0 0.00 0.30 0.00 69 1010.7
20260905085049 74 187 0.0 0.0 0.00 0.30 0.00 70 1010.6
20260905082048 74 177 0.0 0.0 0.00 0.30 0.00 70 1010.4
20260905075047 74 360 0.0 0.0 0.00 0.30 0.00 68 1010.4
20260905072046 75 187 0.0 0.0 0.00 0.30 0.00 67 1010.3
20260905065045 76 284 0.0 0.0 0.00 0.30 0.00 65 1010.2
20260905062044 77 194 0.0 0.0 0.00 0.30 0.00 63 1010.1
20260905055043 78 201 0.9 0.9 0.00 0.30 0.00 61 1009.6